IR2UDS Weather Reports


Display with metric or nautical units.
time (UTC)temp
F
wind
direction
speed
MPH
gust
MPH
rain 1hr
in
rain 24hr
in
rain mn
in
humidity
%
barometer
mb
20260506073321 44 190 12.0 25.0 0.03 0.43 0.19 90 1008.0
20260506072315 44 11 3.0 14.0 0.03 0.43 0.19 90 1007.9
20260506071328 44 37 1.0 4.0 0.03 0.42 0.18 90 1008.0
20260506062327 44 96 1.0 7.0 0.03 0.55 0.16 90 1008.4
20260506061321 44 57 3.0 6.0 0.03 0.54 0.15 90 1008.5
20260506060319 43 71 1.0 3.0 0.03 0.63 0.15 90 1008.6
20260506051315 43 16 5.0 9.0 0.03 0.60 0.12 89 1009.4
20260506050312 43 92 3.0 10.0 0.03 0.72 0.12 89 1009.3
20260506041313 41 67 3.0 5.0 0.04 0.69 0.09 89 1009.6
20260506034320 40 62 2.0 5.0 0.03 0.73 0.07 89 1009.5
20260506033314 40 157 0.0 5.0 0.04 0.73 0.07 88 1009.9
20260506030323 41 66 4.0 7.0 0.04 0.74 0.05 88 1010.3
20260506025313 41 81 1.0 4.0 0.03 0.73 0.04 89 1010.6
20260506023321 41 34 3.0 5.0 0.03 0.72 0.03 89 1010.5
20260506022317 41 16 4.0 4.0 0.03 0.72 0.03 89 1010.7
20260506012314 43 144 0.0 2.0 0.00 0.69 0.00 89 1011.0
20260506010327 43 174 5.0 7.0 0.00 0.69 0.00 89 1011.3
20260506004316 43 182 3.0 8.0 0.00 0.69 0.00 89 1011.2
20260506003327 43 188 7.0 11.0 0.00 0.69 0.00 89 1011.3
20260506002322 43 177 10.0 15.0 0.00 0.69 0.00 89 1011.3
20260506001321 43 210 12.0 16.0 0.00 0.69 0.00 90 1011.0
20260505235328 43 182 8.0 13.0 0.00 0.69 0.00 89 1011.7
20260505234322 42 207 8.0 11.0 0.00 0.69 0.00 89 1011.8
20260505232313 42 200 10.0 13.0 0.00 0.69 0.00 90 1011.8
20260505231327 42 196 8.0 12.0 0.00 0.69 0.00 90 1012.0
20260505225315 42 208 9.0 11.0 0.00 0.69 0.00 90 1011.9
20260505224331 42 186 10.0 15.0 0.00 0.69 0.00 90 1012.0
20260505223331 42 186 8.0 11.0 0.00 0.69 0.00 90 1012.2
20260505214322 42 199 7.0 9.0 0.00 0.69 0.69 90 1012.3
20260505213322 42 193 7.0 10.0 0.00 0.69 0.69 90 1012.3
20260505210320 42 188 6.0 11.0 0.00 0.69 0.69 90 1012.6
20260505205314 43 169 6.0 9.0 0.01 0.69 0.69 90 1012.6
20260505204328 43 173 5.0 8.0 0.01 0.69 0.69 90 1012.8
20260505201313 42 196 5.0 11.0 0.01 0.69 0.69 90 1012.9
20260505194313 43 181 11.0 14.0 0.00 0.68 0.68 90 1012.7
20260505193330 43 227 10.0 12.0 0.00 0.68 0.68 90 1012.6
20260505191318 43 222 12.0 15.0 0.00 0.68 0.68 90 1012.4
20260505185328 43 200 12.0 17.0 0.00 0.68 0.68 90 1012.4
20260505184321 43 202 8.0 12.0 0.00 0.68 0.68 90 1012.3
20260505183321 44 209 10.0 14.0 0.00 0.68 0.68 90 1012.3
20260505181331 44 195 7.0 13.0 0.00 0.68 0.68 90 1012.3
20260505180327 44 208 8.0 11.0 0.00 0.68 0.68 90 1012.2
20260505174319 44 194 9.0 16.0 0.00 0.68 0.68 90 1012.2
20260505173312 44 185 10.0 15.0 0.00 0.68 0.68 90 1012.2
20260505161326 46 177 9.0 12.0 0.00 0.68 0.68 90 1012.3
20260505152318 46 209 6.0 11.0 0.00 0.68 0.68 90 1012.3
20260505150327 46 198 7.0 11.0 0.01 0.68 0.68 90 1013.0
20260505140320 47 181 8.0 12.0 0.00 0.67 0.67 89 1013.0
20260505120324 47 200 4.0 6.0 0.02 0.67 0.67 89 1013.2
20260505114319 46 142 3.0 7.0 0.03 0.67 0.67 90 1013.2
20260505112329 46 94 2.0 8.0 0.04 0.67 0.67 90 1013.1
20260505110322 46 39 0.0 4.0 0.03 0.65 0.65 90 1013.2
20260505101315 44 205 4.0 6.0 0.00 0.62 0.62 90 1012.9
20260505095330 44 182 1.0 10.0 0.00 0.62 0.62 90 1012.7
20260505094325 45 223 3.0 9.0 0.00 0.62 0.62 89 1012.7
20260505093318 44 203 6.0 9.0 0.01 0.62 0.62 90 1012.7
20260505091312 44 214 6.0 8.0 0.03 0.62 0.62 89 1012.6